[[{"header":{"parameterUnit":"m.s-1","parameterCategory":1,"la1":30.2991,"la2":30.254,"lo1":-89.0895,"lo2":-89.0444,"dy":0.0017,"dx":0.0017,"nx":28,"ny":28,"refTime":"2024-08-08T21:00:00:Z","depth":0,"parameterNumber":2,"parameterNumberName":"U-component_of_WINDS"},"data":[0,0,0,0,0,0,0,0,0,0,0,0,0,0,0,0,0,0,0,0,0,0,0,0,0,0,0,0,0,0,0,0,0,0,0,0,0,0,0,0,0,0,0,0,0,0,0,0,0,0,0,0,0,0,0,0,0,0,1.5229,1.5231,0,1.5457,1.5459,1.5462,1.5509,1.5507,1.5506,1.5504,1.5743,1.5751,1.5759,0,0,0,0,0,0,0,0,0,0,0,0,0,1.4836,1.4843,1.5228,1.5231,1.5234,1.5456,1.546,1.5463,1.5509,1.5507,1.5505,1.5503,1.574,1.575,1.5759,0,0,0,0,0,0,0,0,0,0,0,0,0,1.503,1.4845,1.5228,1.5284,1.5291,1.5456,1.546,1.5464,1.551,1.5507,1.5505,1.5502,1.5737,1.5749,1.5761,1.5887,0,0,1.5797,1.5802,0,0,0,0,0,0,0,0,1.5018,1.5044,1.5273,1.5281,1.5289,1.5452,1.5409,1.5606,1.551,1.5427,1.5504,1.5501,1.5648,1.5668,1.5716,1.5898,1.5908,1.5798,1.5806,1.5811,1.5814,0,0,0,0,0,0,0,1.5005,1.5034,1.5319,1.5276,1.5286,1.5299,1.5323,1.5446,1.555,1.5434,1.5438,1.5464,1.5652,1.5705,1.5722,1.5912,1.5798,1.5809,1.5816,1.5821,1.6206,1.6209,0,0,0,0,0,0,1.4981,1.5023,1.5312,1.5326,1.5144,1.5308,1.5336,1.5402,1.5549,1.5568,1.5466,1.5465,1.5685,1.5708,1.5731,1.5887,1.5811,1.5822,1.5829,1.6203,1.6207,1.621,0,0,0,0,0,0,1.4973,1.5006,1.5303,1.5176,1.5214,1.5317,1.5392,1.5408,1.546,1.5573,1.5592,1.55,1.5684,1.5714,1.5847,1.5896,1.5827,1.5838,1.62,1.6204,1.6208,1.62,0,0,0,0,0,0,1.4961,1.5003,1.5052,1.5176,1.5221,1.5414,1.5395,1.5414,1.548,1.5482,1.561,1.5629,1.5685,1.5829,1.5859,1.5911,1.5847,1.6196,1.6202,1.6207,1.6196,1.6204,1.621,0,0,0,0,0,1.4947,1.5042,1.5054,1.5088,1.5283,1.5416,1.5442,1.5503,1.5484,1.5534,1.5605,1.5625,1.5885,1.5842,1.5876,1.5933,1.6193,1.62,1.6207,1.6193,1.6202,1.621,0,0,0,0,0,0,1.4923,1.5059,1.5074,1.5212,1.5302,1.5424,1.5489,1.5511,1.561,1.5607,1.568,1.5709,1.5836,1.5898,1.5847,1.6061,1.6038,1.6052,1.6016,1.6026,1.6032,1.6015,1.5857,0,0,0,0,0,1.4933,1.5028,1.5143,1.5254,1.5298,1.5385,1.5446,1.5484,1.5581,1.562,1.5702,1.5797,1.5899,1.5966,1.6068,1.6205,1.6233,1.6261,1.6268,1.6273,1.6284,1.636,1.6373,1.6233,1.6233,1.6233,0,0,1.4956,1.5042,1.5099,1.5251,1.5325,1.5423,1.5417,1.5522,1.5595,1.5637,1.5766,1.5829,1.594,1.6074,1.6138,1.613,1.6329,1.6281,1.6285,1.6294,1.6368,1.6381,1.6393,1.6237,1.6237,1.6236,0,0,1.5048,1.5123,1.5222,1.5296,1.5408,1.5465,1.5488,1.5607,1.5649,1.578,1.5812,1.5901,1.6078,1.6154,1.6216,1.6334,1.6354,1.6365,1.64,1.6473,1.6484,1.6494,1.6535,1.6549,1.6376,1.6376,1.6376,0,1.5063,1.5211,1.5271,1.5373,1.5439,1.5478,1.5579,1.5648,1.5788,1.5833,1.5821,1.6041,1.6118,1.6271,1.6298,1.6348,1.6377,1.6351,1.6477,1.6488,1.6499,1.6538,1.6553,1.6376,1.6376,1.6376,1.6376,0,1.5223,1.5324,1.5391,1.5522,1.5595,1.5697,1.5773,1.584,1.5871,1.593,1.6061,1.6155,1.6274,1.6313,1.6347,1.647,1.6461,1.6463,1.6441,1.6511,1.655,1.6565,1.6377,1.6377,1.6376,1.6376,0,0,1.5308,1.5468,1.5492,1.555,1.5675,1.5756,1.5858,1.5973,1.6028,1.6123,1.621,1.6357,1.6357,1.6428,1.647,1.6534,1.6618,1.6527,1.6531,1.654,1.6759,1.6756,1.6773,1.6633,1.6636,1.6638,1.6749,0,1.5414,1.5596,1.5652,1.5805,1.5899,1.5937,1.6026,1.6112,1.6169,1.6257,1.6321,1.6423,1.6417,1.6459,1.6524,1.6594,1.6663,1.6587,1.6715,1.6719,1.6685,1.6793,1.6792,1.6892,1.6764,1.6767,1.6769,0,1.5562,1.5656,1.5817,1.5928,1.5969,1.6048,1.6157,1.6241,1.6339,1.6376,1.6452,1.6488,1.6597,1.6568,1.6718,1.6665,1.672,1.6762,1.6768,1.6782,1.6748,1.681,1.6926,1.694,1.6793,1.6792,1.679,0,1.5606,1.5773,1.5891,1.594,1.6072,1.6126,1.6184,1.628,1.6344,1.6439,1.6482,1.6589,1.6648,1.673,1.6794,1.6767,1.6938,1.6915,1.6971,1.697,1.7006,1.7003,1.7132,1.7042,1.7042,1.7042,1.7042,0,1.5718,1.5815,1.5912,1.5984,1.6093,1.6157,1.6264,1.6324,1.6408,1.6493,1.6533,1.6612,1.6691,1.6781,1.6832,1.6947,1.6974,1.7007,1.7019,1.7003,1.6998,1.704,1.7035,1.7046,1.7045,1.7044,1.7044,0,1.5786,1.5855,1.5985,1.6098,1.6128,1.6204,1.6301,1.6373,1.643,1.6537,1.6565,1.6656,1.6763,1.6834,1.6972,1.7006,1.7131,1.7143,1.7097,1.7103,1.7155,1.7149,1.7315,1.7339,1.7234,1.7235,1.7236,0,1.5853,1.5928,1.6048,1.6106,1.6163,1.6258,1.6323,1.6388,1.6455,1.657,1.6628,1.6737,1.6828,1.6997,1.7076,1.7181,1.7195,1.7245,1.7211,1.7191,1.7194,1.7188,1.7195,1.7251,1.7252,1.7252,1.7253,0,1.5964,1.5993,1.6085,1.6187,1.6263,1.6348,1.6433,1.6479,1.6559,1.6632,1.674,1.681,1.6949,1.7057,1.7168,1.7229,1.7254,1.7263,1.7281,1.7265,1.7235,1.7251,1.7111,1.7259,1.7258,1.7258,1.7258,1.7257,1.6033,1.61,1.6194,1.6294,1.6364,1.6442,1.6514,1.6579,1.667,1.6786,1.682,1.6932,1.7027,1.7179,1.7241,1.7331,1.7326,1.7353,1.736,1.7365,1.7364,1.7221,1.7352,1.7352,1.7352,1.7352,1.7352,0,1.6144,1.6206,1.6297,1.6413,1.6492,1.6506,1.66,1.6665,1.6763,1.6849,1.6936,1.706,1.7164,1.7249,1.7356,1.7411,1.7425,1.7437,1.7434,1.7447,1.7364,1.7336,1.7424,1.7424,1.7424,1.7424,1.7424,1.7424,1.6212,1.6326,1.6366,1.6515,1.6576,1.6685,1.6738,1.6809,1.6877,1.7013,1.7099,1.7153,1.7238,1.7351,1.7447,1.7469,1.7507,1.7516,1.754,1.7461,1.7453,1.7445,1.742,1.7523,1.7524,1.7616,1.7617,1.7618]},{"header":{"parameterUnit":"m.s-1","parameterCategory":1,"la1":30.2991,"la2":30.254,"lo1":-89.0895,"lo2":-89.0444,"dy":0.0017,"dx":0.0017,"nx":28,"ny":28,"refTime":"2024-08-08T21:00:00:Z","depth":0,"parameterNumber":3,"parameterNumberName":"V-component_of_WINDS"},"data":[0,0,0,0,0,0,0,0,0,0,0,0,0,0,0,0,0,0,0,0,0,0,0,0,0,0,0,0,0,0,0,0,0,0,0,0,0,0,0,0,0,0,0,0,0,0,0,0,0,0,0,0,0,0,0,0,0,0,2.1855,2.1855,0,2.186,2.1861,2.1861,2.1803,2.1802,2.18,2.1798,2.1802,2.1803,2.1805,0,0,0,0,0,0,0,0,0,0,0,0,0,2.1788,2.179,2.1855,2.1855,2.1855,2.186,2.1861,2.1861,2.1803,2.1801,2.18,2.1798,2.1801,2.1803,2.1805,0,0,0,0,0,0,0,0,0,0,0,0,0,2.1808,2.179,2.1855,2.1827,2.1825,2.186,2.1861,2.1861,2.1804,2.1801,2.1799,2.1797,2.1801,2.1803,2.1805,2.1867,0,0,2.1812,2.1813,0,0,0,0,0,0,0,0,2.1807,2.181,2.1831,2.1829,2.1826,2.1829,2.1838,2.1863,2.1804,2.1812,2.1798,2.1796,2.1812,2.1814,2.182,2.1867,2.1867,2.1812,2.1814,2.1815,2.1816,0,0,0,0,0,0,0,2.1805,2.181,2.1857,2.1831,2.1829,2.1812,2.1812,2.1842,2.1825,2.1811,2.1807,2.1808,2.1811,2.1818,2.1819,2.1867,2.1812,2.1815,2.1816,2.1817,2.1958,2.196,0,0,0,0,0,0,2.1808,2.1809,2.1857,2.1857,2.1811,2.1815,2.1816,2.183,2.1825,2.1822,2.181,2.1806,2.1815,2.1817,2.1819,2.1886,2.1815,2.1817,2.1818,2.1956,2.1958,2.1961,0,0,0,0,0,0,2.1807,2.1813,2.1856,2.1832,2.1836,2.1819,2.1836,2.1832,2.1839,2.1824,2.182,2.1821,2.1813,2.1816,2.1854,2.1886,2.1818,2.182,2.1953,2.1956,2.196,2.2023,0,0,0,0,0,0,2.1806,2.1813,2.1838,2.1833,2.1838,2.1893,2.1838,2.1833,2.1843,2.1837,2.1833,2.183,2.1811,2.1851,2.1856,2.1888,2.1822,2.195,2.1954,2.1959,2.2018,2.2029,2.2037,0,0,0,0,0,2.1803,2.1857,2.184,2.1846,2.1869,2.1895,2.1898,2.1876,2.1846,2.1869,2.1859,2.1831,2.1882,2.1855,2.1861,2.1893,2.1948,2.1953,2.1958,2.2014,2.2027,2.2037,0,0,0,0,0,0,2.1867,2.1856,2.1837,2.1891,2.1894,2.1886,2.1915,2.1891,2.1902,2.1896,2.1867,2.1867,2.1908,2.1905,2.1876,2.1949,2.1909,2.1916,2.195,2.1961,2.1971,2.1969,2.1824,0,0,0,0,0,2.1887,2.1911,2.19,2.1948,2.1951,2.1933,2.1943,2.1926,2.1928,2.1929,2.1922,2.1924,2.1939,2.1951,2.1965,2.2018,2.2013,2.2043,2.2052,2.206,2.2065,2.2087,2.2098,2.1978,2.1978,2.1978,0,0,2.193,2.1926,2.1943,2.1961,2.1961,2.1983,2.1934,2.1962,2.1977,2.1933,2.1967,2.1962,2.1962,2.2006,2.2025,2.2004,2.2097,2.2067,2.2074,2.2074,2.2093,2.2105,2.2115,2.1982,2.1981,2.1981,0,0,2.2017,2.2019,2.2056,2.2057,2.2058,2.2045,2.2054,2.2048,2.2043,2.2077,2.2042,2.2059,2.2089,2.2088,2.2092,2.2174,2.2146,2.218,2.2229,2.225,2.2259,2.2267,2.2291,2.2301,2.2186,2.2186,2.2186,0,2.2069,2.2102,2.2079,2.2106,2.2113,2.2074,2.2109,2.2111,2.2117,2.212,2.2098,2.213,2.2128,2.2168,2.2188,2.2194,2.22,2.2179,2.226,2.2268,2.2275,2.2298,2.2308,2.2189,2.2189,2.2189,2.2188,0,2.2163,2.2187,2.2217,2.2221,2.2231,2.2263,2.2241,2.2254,2.2235,2.2223,2.2255,2.225,2.226,2.2269,2.2252,2.2305,2.2292,2.2266,2.2224,2.2291,2.2311,2.232,2.2195,2.2193,2.2192,2.2191,0,0,2.2291,2.228,2.2291,2.229,2.2286,2.2303,2.2331,2.234,2.2349,2.2354,2.2373,2.2397,2.2371,2.2375,2.2357,2.2376,2.2434,2.2346,2.2345,2.2358,2.2487,2.2504,2.2515,2.2416,2.2418,2.2419,2.2485,0,2.2372,2.2419,2.2397,2.2446,2.2464,2.2425,2.2448,2.2447,2.2436,2.2448,2.2436,2.2451,2.2418,2.2419,2.2437,2.2423,2.2459,2.2419,2.243,2.2431,2.2428,2.2526,2.2546,2.2608,2.2494,2.2495,2.2496,0,2.2473,2.2479,2.253,2.2517,2.2524,2.2546,2.255,2.2564,2.2559,2.2549,2.2552,2.2527,2.255,2.2511,2.254,2.2513,2.2516,2.251,2.2512,2.2509,2.2465,2.2522,2.2628,2.2636,2.2509,2.2508,2.2507,0,2.2554,2.2576,2.2608,2.2609,2.2597,2.2612,2.2608,2.2601,2.2607,2.261,2.2612,2.2619,2.2621,2.2625,2.2601,2.2576,2.263,2.2591,2.2619,2.262,2.2631,2.263,2.2734,2.264,2.264,2.2639,2.2639,0,2.2645,2.2676,2.2643,2.2662,2.2694,2.2667,2.2699,2.269,2.2684,2.2698,2.2666,2.2679,2.2649,2.2658,2.264,2.2663,2.2666,2.2656,2.265,2.2656,2.2657,2.2656,2.2649,2.2642,2.2641,2.2641,2.264,0,2.2741,2.2721,2.2751,2.2736,2.2733,2.2757,2.2743,2.2758,2.2744,2.2762,2.2764,2.2742,2.2751,2.2728,2.2734,2.2721,2.2753,2.2743,2.2755,2.275,2.2778,2.2774,2.2882,2.2893,2.2796,2.2797,2.2797,0,2.2798,2.282,2.2806,2.2813,2.281,2.2823,2.2827,2.28,2.2805,2.28,2.2814,2.2821,2.2824,2.284,2.2822,2.2826,2.2812,2.285,2.2812,2.2816,2.2807,2.2804,2.2804,2.2856,2.2858,2.2859,2.286,0,2.2899,2.2887,2.2895,2.2898,2.2904,2.2905,2.2904,2.2911,2.2882,2.2889,2.2897,2.29,2.2905,2.291,2.2908,2.2901,2.2874,2.2872,2.2877,2.2883,2.2887,2.288,2.2771,2.2869,2.2868,2.2867,2.2867,2.2866,2.2973,2.2989,2.2981,2.2989,2.2985,2.2984,2.2996,2.2982,2.2989,2.299,2.2973,2.2984,2.2975,2.297,2.2965,2.2971,2.2954,2.2964,2.2965,2.2967,2.297,2.2889,2.2971,2.2971,2.2971,2.2971,2.297,0,2.3069,2.306,2.3069,2.3067,2.3072,2.3047,2.3043,2.3049,2.3059,2.3053,2.3056,2.3063,2.3067,2.3049,2.3049,2.3057,2.3044,2.3058,2.3055,2.3052,2.2988,2.298,2.3068,2.3068,2.3067,2.3067,2.3067,2.3067,2.3119,2.3142,2.3129,2.3148,2.314,2.315,2.3149,2.3146,2.314,2.315,2.3152,2.3141,2.3128,2.3127,2.3127,2.3122,2.3121,2.3138,2.3128,2.3067,2.3058,2.3049,2.3041,2.314,2.314,2.3191,2.3192,2.3192]}]]